Location: Beetenbrück
(52.8113°N, 9.5946°E)
Time: 21:54:53
(UTC+00:00)

Cosmos 44 - Pass Details

Date: 14 April 2026
Orbit: 568 x 782 km, 65.1° (Epoch: 12 May)

Event Time Altitude Azimuth Distance (km) Brightness Sun altitude
Exits shadow 22:54:29 60° 278° (W) 860 3.7 -27.2°
Maximum altitude 22:55:07 66° 318° (NW) 823 3.7 -27.2°
Drops below altitude 10° 23:00:28 10° 41° (NE) 2,329 6.5 -27.3°
Sets 23:02:57 0° 44° (NE) 3,271 7.3 -27.4°
